Flag for U.S.A. Weather past 2 weeks in Missoula, Montana, U.S.A.

Now
73 °F

Passing clouds.


Feels Like: 77 °F
Forecast: 46 / 76 °F
Wind: 7 mph from North

Location: Missoula International Airport

Current Time: May 22, 2015 at 5:54:16 PM

Latest Report: May 22, 2015 at 4:53 PM


Visibility: 10 mi

Pressure: 29.80 "Hg

Humidity: 34%

Dew point: 43 °F

Location of MissoulaLocation

Historic Weather in Missoula — Graph

°F

Missoula temperature yesterday

Maximum temperature yesterday: 76 °F (at 3:53 PM)
Minimum temperature yesterday: 42 °F (at 5:53 AM)
Average temperature yesterday: 59 °F

Past Weeks' High & Low Weather Summary

 TemperatureHumidityPressure
High77 °F (May 22, 3:53 PM)97% (May 15, 7:53 AM)30.29 "Hg (May 15, 7:53 AM)
Low32 °F (May 10, 6:53 AM)15% (May 10, 6:53 PM)29.63 "Hg (May 15, 4:53 PM)
Average54 °F52%29.97 "Hg
* Reported May 7 4:53 PM — May 22 4:53 PM, Missoula, Weather by CustomWeather, © 2015

Note: Actual official high and low records may vary slightly from our data, if they occured in-between our weather recording intervals... More about our weather records

Advertising

Missoula weather history for previous 24 hours

 ConditionsComfort  
Time TempWeatherWind HumidityBarometerVisibility
4:53 PM
Fri, May 22
73 °FPassing clouds.7 mph34%29.80 "Hg10 mi
3:53 PM77 °FPassing clouds.N/A26%29.79 "Hg10 mi
2:53 PM76 °FBroken clouds.7 mph29%29.82 "Hg10 mi
1:53 PM73 °FPassing clouds.7 mph32%29.84 "Hg10 mi
12:53 PM70 °FSunny.No wind34%29.86 "Hg10 mi
11:53 AM67 °FSunny.3 mph44%29.87 "Hg10 mi
10:53 AM61 °FSunny.No wind54%29.90 "Hg10 mi
9:53 AM58 °FSunny.3 mph62%29.92 "Hg10 mi
8:53 AM54 °FSunny.No wind69%29.94 "Hg10 mi
7:53 AM50 °FSunny.3 mph80%29.95 "Hg10 mi
6:53 AM47 °FSunny.No wind80%29.95 "Hg10 mi
5:53 AM43 °FClear.No wind89%29.95 "Hg10 mi
4:53 AM44 °FClear.3 mph85%29.93 "Hg10 mi
3:53 AM46 °FClear.No wind83%29.90 "Hg10 mi
2:53 AM46 °FClear.7 mph83%29.90 "Hg10 mi
1:53 AM47 °FClear.7 mph83%29.90 "Hg10 mi
12:53 AM50 °FClear.3 mph83%29.90 "Hg10 mi
11:53 PM
Thu, May 21
58 °FClear.7 mph58%29.88 "Hg10 mi
10:53 PM59 °FOvercast.9 mph56%29.88 "Hg10 mi
9:53 PM60 °FOvercast.7 mph58%29.88 "Hg10 mi
8:53 PM58 °FPassing clouds.7 mph65%29.89 "Hg10 mi
7:53 PM59 °FPartly sunny.3 mph64%29.89 "Hg10 mi
6:53 PM62 °FMostly cloudy.8 mph52%29.90 "Hg10 mi
5:53 PM60 °FLight rain. Mostly cloudy.20 mph67%29.88 "Hg10 mi
Weather by CustomWeather, © 2015

See weather overviewHow to use our weather pages